RAA44 URSS-URMM

Flight info

Callsign RAA44
Flight time 0h 41m
Altitude 25000
Route IRGID1D IRGID A944 GUBOR G487 ERSAR B967 ABELA ABELA5B
Aircraft A318/L-SDE2E3FGHIRWXY/A

Departure

Time 2026-05-06 20:43
Airport Sochi International Airport (URSS)

Arrival

Time 2026-05-06 21:24
Airport Mineralnye Vody Airport (URMM)
Time Latitude Longitude Altitude Speed Heading
2026-05-06 20:15 43.44811 39.94363 104 ft 0 kts 335°
2026-05-06 20:33 43.44802 39.94369 104 ft 2 kts 335°
2026-05-06 20:34 43.44787 39.94379 104 ft 2 kts 334°
2026-05-06 20:34 43.44773 39.94388 104 ft 2 kts 336°
2026-05-06 20:34 43.44758 39.94397 104 ft 2 kts 339°
2026-05-06 20:34 43.44743 39.94404 104 ft 2 kts 343°
2026-05-06 20:35 43.44727 39.94410 104 ft 2 kts 350°
2026-05-06 20:35 43.44711 39.94413 104 ft 2 kts
2026-05-06 20:35 43.44697 39.94409 104 ft 2 kts 47°
2026-05-06 20:35 43.44690 39.94392 104 ft 2 kts 65°
2026-05-06 20:36 43.44688 39.94386 104 ft 0 kts 65°
2026-05-06 20:38 43.44698 39.94417 104 ft 6 kts 65°
2026-05-06 20:38 43.44719 39.94478 104 ft 8 kts 65°
2026-05-06 20:39 43.44747 39.94561 104 ft 11 kts 65°
2026-05-06 20:39 43.44775 39.94642 104 ft 10 kts 65°
2026-05-06 20:39 43.44807 39.94735 104 ft 14 kts 65°
2026-05-06 20:39 43.44847 39.94852 104 ft 13 kts 65°
2026-05-06 20:40 43.44884 39.94960 104 ft 10 kts 65°
2026-05-06 20:40 43.44913 39.95042 104 ft 9 kts 65°
2026-05-06 20:40 43.44938 39.95119 104 ft 9 kts 74°
2026-05-06 20:40 43.44929 39.95160 104 ft 0 kts 151°
2026-05-06 20:41 43.44923 39.95164 104 ft 8 kts 151°
2026-05-06 20:42 43.44853 39.95202 104 ft 11 kts 200°
2026-05-06 20:42 43.44827 39.95150 104 ft 1 kts 245°
2026-05-06 20:42 43.44822 39.95137 104 ft 10 kts 245°
2026-05-06 20:42 43.44673 39.94700 104 ft 93 kts 245°
2026-05-06 20:43 43.44290 39.93577 172 ft 154 kts 245°
2026-05-06 20:43 43.43818 39.92199 899 ft 165 kts 245°
2026-05-06 20:43 43.43322 39.90730 1818 ft 173 kts 247°
2026-05-06 20:43 43.43056 39.89134 2663 ft 172 kts 275°
2026-05-06 20:44 43.43406 39.87601 3413 ft 167 kts 296°
2026-05-06 20:44 43.44099 39.86290 3898 ft 182 kts 315°
2026-05-06 20:44 43.45255 39.85294 4086 ft 214 kts 340°
2026-05-06 20:44 43.46795 39.85113 4368 ft 239 kts 11°
2026-05-06 20:45 43.48319 39.86141 4948 ft 252 kts 39°
2026-05-06 20:45 43.49622 39.87826 5728 ft 261 kts 45°
2026-05-06 20:45 43.50915 39.89625 6603 ft 267 kts 45°
2026-05-06 20:45 43.52221 39.91475 7519 ft 272 kts 46°
2026-05-06 20:46 43.53541 39.93360 8424 ft 276 kts 46°
2026-05-06 20:46 43.54880 39.95283 9315 ft 280 kts 46°
2026-05-06 20:46 43.56232 39.97232 10175 ft 283 kts 46°
2026-05-06 20:46 43.57645 39.99254 10667 ft 302 kts 44°
2026-05-06 20:47 43.59198 40.01226 11257 ft 314 kts 39°
2026-05-06 20:47 43.60943 40.03096 11969 ft 321 kts 35°
2026-05-06 20:47 43.62770 40.04910 12734 ft 326 kts 34°
2026-05-06 20:47 43.64634 40.06739 13499 ft 331 kts 34°
2026-05-06 20:48 43.66515 40.08598 14256 ft 334 kts 36°
2026-05-06 20:48 43.68241 40.10775 14988 ft 339 kts 48°
2026-05-06 20:48 43.69595 40.13449 15690 ft 343 kts 61°
2026-05-06 20:48 43.70631 40.16440 16356 ft 347 kts 64°
2026-05-06 20:49 43.71616 40.19458 16979 ft 351 kts 65°
2026-05-06 20:49 43.72620 40.22556 17597 ft 355 kts 65°
2026-05-06 20:49 43.73634 40.25689 18202 ft 358 kts 65°
2026-05-06 20:49 43.74656 40.28847 18793 ft 361 kts 65°
2026-05-06 20:50 43.75686 40.32029 19376 ft 364 kts 65°
2026-05-06 20:50 43.76725 40.35246 19947 ft 367 kts 65°
2026-05-06 20:50 43.77769 40.38480 20503 ft 370 kts 65°
2026-05-06 20:50 43.78821 40.41741 21047 ft 373 kts 65°
2026-05-06 20:51 43.79879 40.45031 21579 ft 375 kts 65°
2026-05-06 20:51 43.80929 40.48297 22090 ft 378 kts 65°
2026-05-06 20:51 43.81999 40.51629 22590 ft 380 kts 65°
2026-05-06 20:51 43.83075 40.54979 23071 ft 383 kts 65°
2026-05-06 20:52 43.84160 40.58363 23532 ft 385 kts 65°
2026-05-06 20:52 43.85247 40.61763 23980 ft 388 kts 66°
2026-05-06 20:52 43.86343 40.65192 24418 ft 390 kts 66°
2026-05-06 20:52 43.87337 40.68700 24847 ft 392 kts 71°
2026-05-06 20:53 43.88033 40.72370 25078 ft 395 kts 79°
2026-05-06 20:53 43.88387 40.76140 25140 ft 395 kts 85°
2026-05-06 20:53 43.88564 40.79935 25153 ft 395 kts 86°
2026-05-06 20:53 43.88724 40.83683 25155 ft 394 kts 86°
2026-05-06 20:54 43.88887 40.87478 25155 ft 394 kts 86°
2026-05-06 20:54 43.89051 40.91271 25155 ft 394 kts 86°
2026-05-06 20:54 43.89215 40.95058 25154 ft 394 kts 86°
2026-05-06 20:54 43.89379 40.98846 25154 ft 394 kts 86°
2026-05-06 20:55 43.89542 41.02632 25153 ft 394 kts 86°
2026-05-06 20:55 43.89704 41.06422 25153 ft 394 kts 86°
2026-05-06 20:55 43.89865 41.10171 25152 ft 395 kts 86°
2026-05-06 20:55 43.90025 41.13970 25151 ft 395 kts 86°
2026-05-06 20:56 43.90184 41.17773 25151 ft 395 kts 86°
2026-05-06 20:56 43.90343 41.21576 25150 ft 395 kts 86°
2026-05-06 20:56 43.90501 41.25379 25150 ft 395 kts 86°
2026-05-06 20:56 43.90658 41.29181 25149 ft 395 kts 86°
2026-05-06 20:57 43.90813 41.32988 25148 ft 395 kts 86°
2026-05-06 20:57 43.90968 41.36795 25148 ft 395 kts 86°
2026-05-06 20:57 43.91121 41.40597 25147 ft 395 kts 86°
2026-05-06 20:57 43.91271 41.44357 25147 ft 396 kts 86°
2026-05-06 20:58 43.91422 41.48174 25146 ft 396 kts 86°
2026-05-06 20:58 43.91589 41.51981 25145 ft 396 kts 84°
2026-05-06 20:58 43.91940 41.55759 25005 ft 392 kts 79°
2026-05-06 20:58 43.92568 41.59371 24755 ft 379 kts 72°
2026-05-06 20:59 43.93420 41.62820 24504 ft 377 kts 69°
2026-05-06 20:59 43.94327 41.66227 24254 ft 377 kts 69°
2026-05-06 20:59 43.95242 41.69627 24004 ft 376 kts 69°
2026-05-06 20:59 43.96156 41.73024 23753 ft 375 kts 69°
2026-05-06 21:00 43.97054 41.76358 23506 ft 374 kts 69°
2026-05-06 21:00 43.97962 41.79736 23255 ft 373 kts 69°
2026-05-06 21:00 43.98866 41.83099 23005 ft 371 kts 69°
2026-05-06 21:00 43.99766 41.86454 22754 ft 370 kts 69°
2026-05-06 21:01 44.00664 41.89802 22504 ft 369 kts 69°
2026-05-06 21:01 44.01558 41.93138 22253 ft 368 kts 68°
2026-05-06 21:01 44.02447 41.96465 22003 ft 367 kts 68°
2026-05-06 21:01 44.03334 41.99782 21752 ft 366 kts 68°
2026-05-06 21:02 44.04217 42.03094 21502 ft 365 kts 68°
2026-05-06 21:02 44.05084 42.06346 21255 ft 363 kts 68°
2026-05-06 21:02 44.05959 42.09639 21004 ft 363 kts 68°
2026-05-06 21:02 44.06831 42.12919 20754 ft 361 kts 68°
2026-05-06 21:03 44.07699 42.16191 20503 ft 360 kts 68°
2026-05-06 21:03 44.08566 42.19458 20253 ft 359 kts 68°
2026-05-06 21:03 44.09426 42.22711 20002 ft 358 kts 68°
2026-05-06 21:03 44.10280 42.25950 19752 ft 357 kts 68°
2026-05-06 21:04 44.11124 42.29146 19504 ft 355 kts 68°
2026-05-06 21:04 44.11974 42.32369 19254 ft 354 kts 68°
2026-05-06 21:04 44.12820 42.35582 19003 ft 353 kts 68°
2026-05-06 21:04 44.13661 42.38787 18753 ft 352 kts 68°
2026-05-06 21:05 44.14499 42.41983 18502 ft 351 kts 68°
2026-05-06 21:05 44.15334 42.45166 18252 ft 349 kts 68°
2026-05-06 21:05 44.16164 42.48343 18001 ft 349 kts 68°
2026-05-06 21:05 44.16992 42.51512 17751 ft 347 kts 68°
2026-05-06 21:06 44.17805 42.54622 17504 ft 346 kts 68°
2026-05-06 21:06 44.18626 42.57767 17253 ft 345 kts 68°
2026-05-06 21:06 44.19538 42.60832 17002 ft 342 kts 59°
2026-05-06 21:06 44.20792 42.63630 16753 ft 339 kts 54°
2026-05-06 21:07 44.22108 42.66351 16648 ft 338 kts 53°
2026-05-06 21:07 44.23426 42.69072 16536 ft 339 kts 54°
2026-05-06 21:07 44.24736 42.71795 16410 ft 338 kts 54°
2026-05-06 21:07 44.26041 42.74517 16284 ft 337 kts 54°
2026-05-06 21:08 44.27340 42.77237 16157 ft 337 kts 54°
2026-05-06 21:08 44.28635 42.79956 16031 ft 336 kts 54°
2026-05-06 21:08 44.29909 42.82635 15906 ft 335 kts 54°
2026-05-06 21:08 44.31195 42.85343 15780 ft 335 kts 54°
2026-05-06 21:09 44.32475 42.88055 15656 ft 334 kts 54°
2026-05-06 21:09 44.33754 42.90763 15530 ft 334 kts 54°
2026-05-06 21:09 44.35031 42.93468 15405 ft 333 kts 54°
2026-05-06 21:09 44.36305 42.96166 15280 ft 333 kts 54°
2026-05-06 21:10 44.37577 42.98864 15166 ft 332 kts 54°
2026-05-06 21:10 44.38856 43.01584 14610 ft 337 kts 54°
2026-05-06 21:10 44.40145 43.04330 13935 ft 338 kts 54°
2026-05-06 21:10 44.41418 43.07037 13314 ft 337 kts 54°
2026-05-06 21:11 44.42554 43.09892 12690 ft 337 kts 67°
2026-05-06 21:11 44.42977 43.13090 12085 ft 337 kts 89°
2026-05-06 21:11 44.42498 43.16268 11468 ft 335 kts 113°
2026-05-06 21:11 44.41378 43.19129 10942 ft 334 kts 120°
2026-05-06 21:12 44.40189 43.21840 10747 ft 319 kts 121°
2026-05-06 21:12 44.39045 43.24411 10552 ft 307 kts 121°
2026-05-06 21:12 44.37923 43.26933 9978 ft 304 kts 121°
2026-05-06 21:12 44.36817 43.29424 9433 ft 299 kts 121°
2026-05-06 21:13 44.35748 43.31831 9103 ft 292 kts 121°
2026-05-06 21:13 44.34684 43.34230 8815 ft 290 kts 121°
2026-05-06 21:13 44.33623 43.36621 8516 ft 289 kts 121°
2026-05-06 21:13 44.32568 43.38994 8237 ft 288 kts 121°
2026-05-06 21:14 44.31514 43.41365 7935 ft 286 kts 121°
2026-05-06 21:14 44.30294 43.43533 7659 ft 285 kts 138°
2026-05-06 21:14 44.28616 43.44866 7499 ft 269 kts 163°
2026-05-06 21:14 44.26849 43.45079 7382 ft 246 kts 190°
2026-05-06 21:15 44.25305 43.44261 7036 ft 234 kts 210°
2026-05-06 21:15 44.23930 43.43152 6648 ft 228 kts 212°
2026-05-06 21:15 44.22601 43.42033 6346 ft 220 kts 213°
2026-05-06 21:15 44.21311 43.40925 6050 ft 215 kts 213°
2026-05-06 21:16 44.19965 43.40019 5694 ft 217 kts 192°
2026-05-06 21:16 44.18513 43.40297 5327 ft 214 kts 154°
2026-05-06 21:16 44.17350 43.41560 4970 ft 210 kts 143°
2026-05-06 21:16 44.16075 43.42456 4884 ft 204 kts 166°
2026-05-06 21:17 44.14684 43.42547 4840 ft 200 kts 190°
2026-05-06 21:17 44.13417 43.41948 4804 ft 182 kts 210°
2026-05-06 21:17 44.12483 43.40991 4750 ft 159 kts 226°
2026-05-06 21:17 44.11805 43.39834 4710 ft 152 kts 239°
2026-05-06 21:18 44.11343 43.38528 4676 ft 149 kts 252°
2026-05-06 21:18 44.11100 43.37137 4636 ft 148 kts 264°
2026-05-06 21:18 44.11120 43.35722 4596 ft 145 kts 283°
2026-05-06 21:18 44.11409 43.34369 4510 ft 146 kts 290°
2026-05-06 21:19 44.11788 43.33071 4367 ft 144 kts 295°
2026-05-06 21:19 44.12227 43.31824 4221 ft 144 kts 298°
2026-05-06 21:19 44.12686 43.30647 4062 ft 136 kts 300°
2026-05-06 21:19 44.13152 43.29521 3924 ft 133 kts 301°
2026-05-06 21:20 44.13627 43.28418 3786 ft 133 kts 301°
2026-05-06 21:20 44.13950 43.27680 3693 ft 132 kts 302°
2026-05-06 21:20 44.14590 43.26244 3514 ft 132 kts 302°
2026-05-06 21:20 44.15075 43.25162 3369 ft 132 kts 302°
2026-05-06 21:21 44.15559 43.24085 3232 ft 131 kts 302°
2026-05-06 21:21 44.16046 43.23006 3089 ft 131 kts 302°
2026-05-06 21:21 44.16530 43.21934 2928 ft 130 kts 302°
2026-05-06 21:21 44.17016 43.20860 2765 ft 131 kts 302°
2026-05-06 21:22 44.17489 43.19811 2601 ft 131 kts 301°
2026-05-06 21:22 44.17973 43.18739 2426 ft 131 kts 301°
2026-05-06 21:22 44.18453 43.17674 2257 ft 131 kts 300°
2026-05-06 21:22 44.18938 43.16600 2083 ft 130 kts 300°
2026-05-06 21:23 44.19416 43.15538 1925 ft 130 kts 300°
2026-05-06 21:23 44.19896 43.14475 1759 ft 129 kts 300°
2026-05-06 21:23 44.20366 43.13434 1597 ft 129 kts 299°
2026-05-06 21:23 44.20850 43.12362 1425 ft 129 kts 299°
2026-05-06 21:24 44.21317 43.11324 1259 ft 128 kts 298°
2026-05-06 21:24 44.21791 43.10273 1082 ft 124 kts 298°
2026-05-06 21:24 44.22152 43.09474 1069 ft 58 kts 301°
2026-05-06 21:24 44.22330 43.09071 1069 ft 43 kts 303°
2026-05-06 21:25 44.22456 43.08799 1069 ft 6 kts 304°
2026-05-06 21:25 44.22438 43.08761 1069 ft 8 kts 174°
2026-05-06 21:25 44.22387 43.08820 1069 ft 11 kts 152°
2026-05-06 21:25 44.22324 43.08867 1069 ft 2 kts 152°
2026-05-06 21:26 44.22323 43.08867 1069 ft 0 kts 152°